This is the latest recevied weather packets stored in our database for station/object DB0OHA-10. If no packets are shown the sender has not sent any weather packets the latest 10 day(s).
| Time | Temp. | Humidity | Pressure | Rain* | Wind** | Luminosity | Snow |
|---|---|---|---|---|---|---|---|
| 1777101327 | 6.11° C | 1% | 1017.5 hPa | 0 mm | - | 288 W/m² | - |
| 1777100462 | 6.11° C | 1% | 1017.6 hPa | 0 mm | - | 265 W/m² | - |
| 1777100432 | 6.11° C | 1% | 1017.6 hPa | 0 mm | - | 265 W/m² | - |
| 1777100427 | 6.11° C | 1% | 1017.6 hPa | 0 mm | - | 265 W/m² | - |
| 1777099527 | 5° C | 1% | 1017.7 hPa | 0 mm | - | 193 W/m² | - |
| 1777098627 | 5° C | 1% | 1017.5 hPa | 0 mm | - | 98 W/m² | - |
| 1777097737 | 4.44° C | 1% | 1017.6 hPa | 0 mm | - | 98 W/m² | - |
| 1777097732 | 4.44° C | 1% | 1017.6 hPa | 0 mm | - | 98 W/m² | - |
| 1777097727 | 4.44° C | 1% | 1017.6 hPa | 0 mm | - | 98 W/m² | - |
| 1777096834 | 4.44° C | 1% | 1017.5 hPa | 0 mm | - | 86 W/m² | - |
| 1777096831 | 4.44° C | 1% | 1017.5 hPa | 0 mm | - | 86 W/m² | - |
| 1777096827 | 4.44° C | 1% | 1017.5 hPa | 0 mm | - | 86 W/m² | - |
| 1777095975 | 4.44° C | 1% | 1017.4 hPa | 0 mm | - | 83 W/m² | - |
| 1777095940 | 4.44° C | 1% | 1017.4 hPa | 0 mm | - | 83 W/m² | - |
| 1777095927 | 4.44° C | 1% | 1017.4 hPa | 0 mm | - | 83 W/m² | - |
| 1777095031 | 4.44° C | 1% | 1017.1 hPa | 0 mm | - | 81 W/m² | - |
| 1777095027 | 4.44° C | 1% | 1017.1 hPa | 0 mm | - | 81 W/m² | - |
| 1777094165 | 4.44° C | 1% | 1016.9 hPa | 0 mm | - | 56 W/m² | - |
| 1777094136 | 4.44° C | 1% | 9116.9 hPa | 0 mm | - | 56 W/m² | - |
| 1777094127 | 4.44° C | 1% | 1016.9 hPa | 0 mm | - | 56 W/m² | - |
| 1777093227 | 4.44° C | 1% | 1016.9 hPa | 0 mm | - | 32 W/m² | - |
| 1777092338 | 4.44° C | 1% | 1016.8 hPa | 0 mm | - | 28 W/m² | - |
| 1777092327 | 4.44° C | 1% | 1016.8 hPa | 0 mm | - | 28 W/m² | - |
| 1777091432 | 4.44° C | 1% | 1016.8 hPa | 0 mm | - | 14 W/m² | - |
| 1777091430 | 4.44° C | 1% | 1016.8 hPa | 0 mm | - | 14 W/m² | - |
* Rain latest hour (hover to see other rain measurements)
** Current wind speed in m/s (hover to see current wind gust speed)